Location: Baia Mare
(47.6567°N, 23.5850°E)
Time: 02:41:00
(UTC+03:00)

ISS - Pass Details

Date: 05 March 2019
Orbit: 417 x 423 km, 51.6° (Epoch: 25 October)

Event Time Altitude Azimuth Distance (km) Brightness Sun altitude
Exits shadow 05:23:28 30° 313° (NW) 830 -2.6 -17.0°
Maximum altitude 05:24:53 49° 12° (NNE) 576 -3.0 -16.7°
Drops below altitude 10° 05:28:16 10° 89° (E) 1,547 0.4 -16.2°
Sets 05:30:25 0° 95° (E) 2,406 1.7 -15.8°
